Location: Baix
(44.7118°N, 4.7648°E)
Time: 16:58:10
(UTC+00:00)

Cosmos 2266 Rocket - Pass Details

Date: 07 August 2020
Orbit: 934 x 1008 km, 82.9° (Epoch: 23 September)

Event Time Altitude Azimuth Distance (km) Brightness Sun altitude
Rises 02:30:52 0° 350° (N) 3,741 7.6 -18.5°
Reaches altitude 10° 02:33:25 10° 348° (NNW) 2,781 6.9 -18.2°
Maximum altitude 02:39:47 73° 265° (W) 1,034 4.0 -17.4°
Enters shadow 02:45:00 15° 183° (S) 2,354 5.6 -16.8°
